Preview of NWS' New Version of Forecast
This preview is not operational and should not be used for support decisions.

Regional Weather Roundup (RWR)

Issued by National Weather Service (NWS)

                            
000
ASPQ40 PGUM 200610
RWRPQ 
WEATHER ROUNDUP FOR THE MARIANAS AND MICRONESIA
NATIONAL WEATHER SERVICE TIYAN GU
400 PM CHST TUE AUG 20 2019

GUZ001>004-200700-
MARIANA ISLANDS-
  
CITY           SKY/WX    TMP DP  RH WIND       PRES   REMARKS
GUAM AIRPORT   PTSUNNY   86  73  66 SW9       29.78F HX  93           
ANDERSEN AFB   PTSUNNY   86  75  70 SW13      29.79F HX  95           
ROTA AIRPORT   MOSUNNY   82  75  78 S15       29.75F                  
TINIAN AP      MOSUNNY   90  77  66 SW9       29.77R HX 102           
SAIPAN AP      MOSUNNY   88  75  66 S8        29.78S HX  97           

$$

PMZ161-200700-
REPUBLIC OF PALAU-
  
CITY           SKY/WX    TMP DP  RH WIND       PRES   REMARKS
KOROR AP       PTSUNNY   86  75  70 SW13G26   29.71F HX  95           
KOROR WSO      NOT AVBL                                               

$$

PMZ171>174-200700-
FEDERATED STATES OF MICRONESIA-
  
CITY           SKY/WX    TMP DP  RH WIND       PRES   REMARKS
YAP AIRPORT    PTSUNNY   86  77  74 SW10      29.72F HX  97           
CHUUK AP       CLOUDY    86  79  79 NW7       29.73S HX  99           
POHNPEI AP     NOT AVBL                                               
POHNPEI WSO    PTSUNNY   88  79  74 NW3       29.74S HX 102           
KOSRAE AP      NOT AVBL                                               

$$

PMZ181-200700-
REPUBLIC OF THE MARSHALL ISLANDS-
  
CITY           SKY/WX    TMP DP  RH WIND       PRES   REMARKS
KWAJALEIN AP   SUNNY     88  75  66 CALM      29.73R HX  97           
MAJURO AP      NOT AVBL                                               
MAJURO WSO     PTSUNNY   84  75  74 SW6       29.73R HX  92           

$$